Starlink 32036

operational
NORAD ID: 60141 Int'l Des: 2024-120 Owner: SPXS Country: US Constellation: starlink
LEOCIRCULAR

About Starlink 32036

Description loading...

Live Position

Loading 3D Globe...

Upcoming Passes

Altitude History

Altitude vs Time

uPlot chart will show altitude changes over time

Two-Line Element Set

1 60141U 24120G 25351.00666432 .00008817 00000-0 30987-3 0 9998
2 60141 53.1622 344.2223 0001694 72.3267 287.7918 15.30157468 83799
Epoch: Dec 17, 2025 • Age: 11 hours

Current Status

Altitude 475.1 km
Velocity 7.63 km/s
Sub-Earth Point 6.85°N, 93.34°E
Launch Date Jun 27, 2024
Age 1.4 years
Type internet

Technical Details

Classification Payload
Mass 730.00 kg
Dry Mass 700.00 kg
Total Mass 730.00 kg
Length 0.30 m
Diameter 4.10 m
Span 29.00 m
Shape Box + pan
Manufacturer SPXS
Bus Type Starlink V2M
Phase Status In Orbit
Owner/State SPXS/US

Large Constellations

Loading constellations...